TimeCST,TemperatureF,Dew PointF,Humidity,Sea Level PressureIn,VisibilityMPH,Wind Direction,Wind SpeedMPH,Gust SpeedMPH,PrecipitationIn,Events,Conditions,WindDirDegrees,DateUTC
12:55 AM,33.8,30.2,87,30.30,10.0,Variable,4.6,-,N/A,,Partly Cloudy,0,2013-02-09 06:55:00
1:55 AM,33.8,30.2,87,30.30,10.0,NNE,3.5,-,N/A,,Partly Cloudy,30,2013-02-09 07:55:00
2:15 AM,33.8,30.2,87,30.29,10.0,NE,3.5,-,N/A,,Clear,50,2013-02-09 08:15:00
2:55 AM,33.8,30.2,87,30.28,10.0,ENE,5.8,-,N/A,,Clear,60,2013-02-09 08:55:00
3:15 AM,33.8,30.2,87,30.29,10.0,Calm,Calm,-,N/A,,Clear,0,2013-02-09 09:15:00
3:35 AM,32.0,28.4,87,30.30,10.0,Variable,3.5,-,N/A,,Clear,0,2013-02-09 09:35:00
3:55 AM,32.0,28.4,87,30.31,10.0,Calm,Calm,-,N/A,,Clear,0,2013-02-09 09:55:00
4:15 AM,30.2,28.4,93,30.31,10.0,Calm,Calm,-,N/A,,Clear,0,2013-02-09 10:15:00
4:35 AM,30.2,28.4,93,30.32,10.0,Calm,Calm,-,N/A,,Clear,0,2013-02-09 10:35:00
4:55 AM,28.4,28.4,100,30.33,10.0,Calm,Calm,-,N/A,,Clear,0,2013-02-09 10:55:00
5:55 AM,30.2,28.4,93,30.33,10.0,Calm,Calm,-,N/A,,Overcast,0,2013-02-09 11:55:00
6:55 AM,30.2,28.4,93,30.32,10.0,NE,3.5,-,N/A,,Overcast,50,2013-02-09 12:55:00
7:55 AM,33.8,30.2,87,30.33,10.0,NE,8.1,-,N/A,,Mostly Cloudy,50,2013-02-09 13:55:00
8:55 AM,33.8,30.2,87,30.33,10.0,East,9.2,-,N/A,,Mostly Cloudy,80,2013-02-09 14:55:00
9:55 AM,35.6,30.2,81,30.34,10.0,ENE,5.8,-,N/A,,Mostly Cloudy,70,2013-02-09 15:55:00
10:55 AM,37.4,30.2,75,30.31,10.0,Variable,5.8,-,N/A,,Mostly Cloudy,0,2013-02-09 16:55:00
11:55 AM,41.0,33.8,76,30.28,10.0,East,6.9,-,N/A,,Mostly Cloudy,80,2013-02-09 17:55:00
12:55 PM,44.6,33.8,66,30.24,10.0,East,4.6,-,N/A,,Scattered Clouds,80,2013-02-09 18:55:00
1:55 PM,46.4,33.8,62,30.21,10.0,East,3.5,-,N/A,,Scattered Clouds,80,2013-02-09 19:55:00
2:55 PM,48.2,33.8,58,30.18,10.0,ENE,4.6,-,N/A,,Scattered Clouds,60,2013-02-09 20:55:00
3:55 PM,48.2,33.8,58,30.15,10.0,East,4.6,-,N/A,,Scattered Clouds,80,2013-02-09 21:55:00
4:55 PM,48.2,35.6,62,30.14,10.0,NE,3.5,-,N/A,,Mostly Cloudy,50,2013-02-09 22:55:00
5:55 PM,46.4,35.6,66,30.12,10.0,NE,4.6,-,N/A,,Mostly Cloudy,40,2013-02-09 23:55:00
6:55 PM,46.4,33.8,62,30.12,10.0,ENE,4.6,-,N/A,,Mostly Cloudy,60,2013-02-10 00:55:00
7:55 PM,44.6,35.6,71,30.10,10.0,East,4.6,-,N/A,,Clear,90,2013-02-10 01:55:00
8:55 PM,46.4,35.6,66,30.10,10.0,East,3.5,-,N/A,,Clear,80,2013-02-10 02:55:00
9:55 PM,46.4,37.4,71,30.08,10.0,East,4.6,-,N/A,,Clear,100,2013-02-10 03:55:00
10:55 PM,48.2,37.4,66,30.06,10.0,ESE,6.9,-,N/A,,Scattered Clouds,120,2013-02-10 04:55:00
11:55 PM,48.2,37.4,66,30.03,10.0,SE,9.2,-,N/A,,Partly Cloudy,130,2013-02-10 05:55:00